Chilco, Idaho
Current Conditions -  °F | °C
As of 3:15 AM on Thursday 18 Dec 2014 (Local Time) from KCOE Reporting Station
Overcast Overcast  
Wind Chill: 34°   Ceiling: 3300
Heat Index: 34°   Visibility: 5mi
Dew Point: 32°   Wind: 0mph
Humidity: 93%   Direction: NA
Pressure: 29.97"   Gusts: NA
Location:  47.9325°N, 116.647°W
Report Text: KCOE 181115Z AUTO 00000KT 5SM FEW027 OVC033 01/00 A2997 RMK AO1
Loading
Personal Weather Stations






























Interactive Weather Map New forecast layout! Learn more

10-Day Weather Forecast

Advertisements
Track Severe Weather on mobile